This demonstration page uses our WeatherBlox Daily Observations layout. Learn more.

Left ArrowRight Arrow

39.12711, -84.51439

Hourly Observations for July 9, 2017

Temp ( °F °C ) Dew Point ( °F °C ) Humidity (%) Winds ( mph kmh ) Pressure ( in mb ) Visibility ( mi km ) Precip ( " mm )
12:53 am 00:53 Clear 63 17.2 62 16.7 97 97 N N/A 30.06 1018 10 16 N/A
1:53 am 01:53 Clear 63 17.2 62 16.7 97 97 N N/A 30.07 1018 10 16 N/A
2:53 am 02:53 Clear with Mist and Fog 60 15.6 60 15.6 100 100 N N/A 30.06 1018 1 2 N/A
3:04 am 03:04 Clear with Mist and Fog 61 16.1 61 16.1 100 100 N N/A 30.03 1017 4 6 N/A
3:10 am 03:10 Clear with Mist and Fog 60 15.6 60 15.6 100 100 N N/A 30.03 1017 1 2 N/A
3:17 am 03:17 Clear with Mist and Fog 60 15.6 60 15.6 100 100 N N/A 30.03 1017 1 1 N/A
3:21 am 03:21 Clear with Mist and Fog 59 15 59 15 100 100 N N/A 30.09 1019 3 4 N/A
3:28 am 03:28 Clear 59 15 59 15 100 100 N N/A 30.03 1017 7 11 N/A
3:34 am 03:34 Clear with Mist and Fog 58 14.4 58 14.4 100 100 N N/A 30.06 1018 2 3 N/A
3:45 am 03:45 Clear with Mist and Fog 57 13.9 57 13.9 100 100 N N/A 30.06 1018 4 6 N/A
3:53 am 03:53 Clear with Mist and Fog 59 15 58 14.4 96 96 N N/A 30.06 1018 2 3 N/A
3:55 am 03:55 Mostly Cloudy with Mist and Fog 59 15 59 15 100 100 N N/A 30.03 1017 1 2 N/A
3:57 am 03:57 Mostly Cloudy with Mist and Fog 59 15 59 15 100 100 N N/A 30.09 1019 1 1 N/A
4:10 am 04:10 Mostly Clear with Mist and Fog 60 15.6 60 15.6 100 100 N N/A 30.06 1018 1 2 N/A
4:16 am 04:16 Mostly Clear with Mist and Fog 60 15.6 60 15.6 100 100 N N/A 30.06 1018 3 5 N/A
4:35 am 04:35 Mostly Clear with Mist and Fog 58 14.4 58 14.4 100 100 ENE 3 6 30.09 1019 1 2 N/A
4:37 am 04:37 Mostly Cloudy with Mist and Fog 57 13.9 57 13.9 100 100 N N/A 30.09 1019 1 1 N/A
4:45 am 04:45 Mostly Clear with Mist and Fog 58 14.4 58 14.4 100 100 N N/A 30.09 1019 1 2 N/A
4:53 am 04:53 Mostly Clear with Mist and Fog 59 15 59 15 100 100 N N/A 30.07 1018 5 8 N/A
5:23 am 05:23 Clear with Mist and Fog 57 13.9 57 13.9 100 100 N N/A 30.09 1019 1 2 N/A
5:26 am 05:26 Mostly Cloudy with Fog 57 13.9 57 13.9 100 100 N N/A 30.09 1019 1 1 N/A
5:34 am 05:34 Mostly Cloudy with Fog 58 14.4 58 14.4 100 100 N N/A 30.09 1019 0 0 N/A
5:53 am 05:53 Mostly Cloudy with Fog 56 13.3 56 13.3 100 100 N N/A 30.09 1019 0 0 N/A
5:58 am 05:58 Mostly Cloudy with Fog 57 13.9 57 13.9 100 100 N N/A 30.09 1019 0 0 N/A
6:53 am 06:53 Mostly Cloudy with Fog 56 13.3 56 13.3 100 100 N N/A 30.10 1019 5 8 N/A
7:53 am 07:53 Mostly Cloudy with Fog 60 15.6 60 15.6 100 100 N N/A 30.11 1020 0 0 N/A
8:49 am 08:49 Partly Cloudy with Mist and Fog 64 18 64 18 100 100 N N/A 30.09 1019 3 5 N/A
8:53 am 08:53 Sunny 65 18.3 65 18.3 100 100 N N/A 30.11 1020 7 11 N/A
9:53 am 09:53 Sunny 71 21.7 64 17.8 79 79 N N/A 30.12 1020 10 16 N/A
10:53 am 10:53 Sunny 75 23.9 58 14.4 55 55 N N/A 30.11 1020 10 16 N/A
11:53 am 11:53 Mostly Sunny 77 25 54 12.2 45 45 VRB 5 7 30.11 1020 10 16 N/A
12:53 pm 12:53 Mostly Sunny 80 26.7 57 13.9 45 45 VRB 5 7 30.10 1019 10 16 N/A
1:53 pm 13:53 Mostly Sunny 81 27.2 57 13.9 44 44 N N/A 30.09 1019 10 16 N/A
2:53 pm 14:53 Mostly Sunny 80 26.7 56 13.3 44 44 VRB 3 6 30.08 1019 10 16 N/A
3:53 pm 15:53 Mostly Sunny 81 27.2 57 13.9 44 44 S 10 17 30.06 1018 10 16 N/A
4:53 pm 16:53 Mostly Sunny 82 27.8 57 13.9 42 42 W 7 11 30.05 1018 10 16 N/A
5:53 pm 17:53 Mostly Sunny 81 27.2 61 16.1 51 51 VRB 5 7 30.04 1017 10 16 N/A
6:53 pm 18:53 Sunny 81 27.2 58 14.4 45 45 W 7 11 30.03 1017 10 16 N/A
7:53 pm 19:53 Sunny 78 25.6 60 15.6 54 54 WSW 7 11 30.02 1017 10 16 N/A
8:53 pm 20:53 Sunny 73 22.8 63 17.2 71 71 SSE 3 6 30.02 1017 10 16 N/A
9:53 pm 21:53 Clear 69 20.6 63 17.2 81 81 N N/A 30.03 1017 10 16 N/A
10:53 pm 22:53 Clear 67 19.4 63 17.2 87 87 N N/A 30.04 1017 10 16 N/A
11:53 pm 23:53 Clear 66 18.9 63 17.2 90 90 N N/A 30.04 1017 10 16 N/A

Powered by AerisWeather